TimeMST,TemperatureF,Dew PointF,Humidity,Sea Level PressureIn,VisibilityMPH,Wind Direction,Wind SpeedMPH,Gust SpeedMPH,PrecipitationIn,Events,Conditions,WindDirDegrees,DateUTC
12:11 AM,19.4,17.6,93,29.51,3.0,West,16.1,-,0.00,Snow,Light Snow,280,2013-11-17 07:11:00
12:18 AM,21.2,17.6,86,29.51,7.0,West,15.0,-,0.00,Snow,Light Snow,280,2013-11-17 07:18:00
12:54 AM,19.9,18.0,92,29.60,3.0,West,11.5,-,0.00,Snow,Light Snow,270,2013-11-17 07:54:00
1:10 AM,19.4,17.6,93,29.54,2.5,West,11.5,-,0.00,Snow,Light Snow,260,2013-11-17 08:10:00
1:18 AM,19.4,17.6,93,29.54,2.0,West,10.4,-,0.00,Snow,Light Snow,260,2013-11-17 08:18:00
1:35 AM,19.4,17.6,93,29.54,3.0,West,10.4,-,0.00,Snow,Light Snow,260,2013-11-17 08:35:00
1:47 AM,19.4,17.6,93,29.55,4.0,West,9.2,-,0.00,Snow,Light Snow,280,2013-11-17 08:47:00
1:54 AM,19.0,17.1,92,29.64,6.0,West,8.1,-,0.00,Snow,Light Snow,260,2013-11-17 08:54:00
2:54 AM,16.0,12.9,88,29.68,10.0,SW,9.2,-,0.00,,Mostly Cloudy,230,2013-11-17 09:54:00
3:10 AM,12.2,10.4,92,29.58,10.0,SW,10.4,-,N/A,,Scattered Clouds,230,2013-11-17 10:10:00
3:54 AM,12.0,10.0,92,29.71,10.0,SW,9.2,-,N/A,,Partly Cloudy,230,2013-11-17 10:54:00
4:54 AM,10.0,9.0,95,29.73,10.0,SW,5.8,-,N/A,,Clear,220,2013-11-17 11:54:00
5:54 AM,8.1,8.1,100,29.75,10.0,SE,5.8,-,N/A,,Clear,130,2013-11-17 12:54:00
6:54 AM,8.1,6.1,92,29.77,10.0,ESE,3.5,-,N/A,,Clear,120,2013-11-17 13:54:00
7:54 AM,9.0,7.0,92,29.81,10.0,Calm,Calm,-,N/A,,Clear,0,2013-11-17 14:54:00
8:54 AM,25.0,18.0,75,29.79,10.0,WSW,10.4,-,N/A,,Clear,250,2013-11-17 15:54:00
9:54 AM,32.0,18.0,56,29.79,10.0,West,16.1,20.7,N/A,,Clear,260,2013-11-17 16:54:00
10:54 AM,34.0,19.0,54,29.81,10.0,WSW,20.7,26.5,N/A,,Mostly Cloudy,250,2013-11-17 17:54:00
11:54 AM,35.1,21.9,59,29.84,10.0,WSW,21.9,33.4,N/A,,Overcast,250,2013-11-17 18:54:00
12:54 PM,35.1,19.0,52,29.86,10.0,West,20.7,27.6,N/A,,Mostly Cloudy,280,2013-11-17 19:54:00
1:54 PM,34.0,23.0,64,29.88,10.0,West,15.0,-,N/A,,Overcast,270,2013-11-17 20:54:00
2:54 PM,34.0,19.0,54,29.92,10.0,West,13.8,-,N/A,,Overcast,260,2013-11-17 21:54:00
3:54 PM,33.1,21.0,61,29.94,10.0,West,10.4,-,N/A,,Mostly Cloudy,280,2013-11-17 22:54:00
4:54 PM,27.0,19.0,72,29.99,10.0,West,9.2,-,N/A,,Clear,270,2013-11-17 23:54:00
5:54 PM,26.1,17.1,69,30.02,10.0,WSW,11.5,-,N/A,,Clear,240,2013-11-18 00:54:00
6:54 PM,26.1,17.1,69,30.03,10.0,SW,12.7,-,N/A,,Clear,230,2013-11-18 01:54:00
7:54 PM,26.1,16.0,66,30.01,10.0,SW,15.0,-,N/A,,Clear,230,2013-11-18 02:54:00
8:54 PM,30.0,16.0,56,29.95,10.0,SW,18.4,-,N/A,,Clear,230,2013-11-18 03:54:00
9:54 PM,32.0,18.0,56,29.91,10.0,SW,25.3,29.9,N/A,,Clear,230,2013-11-18 04:54:00
10:54 PM,33.1,18.0,54,29.91,10.0,SW,21.9,-,N/A,,Clear,230,2013-11-18 05:54:00
11:54 PM,32.0,18.0,56,29.93,10.0,SW,20.7,-,N/A,,Clear,230,2013-11-18 06:54:00